Change the Weather History Date:

Saturday, August 24, 2013

  Actual Average Record
Temperature  
Mean Temperature 72 °F -  
Max Temperature 84 °F 92 °F 92 °F (1980)
Min Temperature 61 °F 54 °F 48 °F (2002)
Cooling Degree Days 6    
Growing Degree Days 22 (Base 50)    
Moisture  
Dew Point 50 °F    
Average Humidity 49    
Maximum Humidity 67    
Minimum Humidity 27    
Precipitation  
Precipitation 0.00 in - - ()
Sea Level Pressure  
Sea Level Pressure 30.00 in    
Wind  
Wind Speed 8 mph (SE)    
Max Wind Speed 22 mph    
Max Gust Speed 31 mph    
Visibility 10 miles    
Events      
Averages and records for this station are not official NWS values.
T = Trace of Precipitation, MM = Missing Value Source: NWS Daily Summary

Daily Weather History Graph

Daily Weather History Graph

Search for Another Location

Airport or City:

Trip Planner

Search our weather history database for the weather conditions in past years. The results will help you decide how hot, cold, wet, or windy it might be!

Date:

Astronomy

Aug. 24, 2013 Rise Set
Actual Time 6:30 AM MDT 7:41 PM MDT
Civil Twilight 6:04 AM MDT 8:08 PM MDT
Nautical Twilight 5:32 AM MDT 8:39 PM MDT
Astronomical Twilight 4:59 AM MDT 9:12 PM MDT
Moon 9:49 PM MDT (8/24) 10:22 AM MDT (8/24)
Length of Visible Light 14h 04m
Length of Day
13h 11m
Waning Gibbous, 84% of the Moon is Illuminated
Aug 24
Waning Gibbous
Aug 28
Last Quarter
Sep 5
New
Sep 12
First Quarter
Sep 19
Full

Hourly Weather History & Observations

Time (MDT) Temp. Dew Point Humidity Pressure Visibility Wind Dir Wind Speed Gust Speed Precip Events Conditions
12:53 AM 64.9 °F 46.9 °F 52% 29.93 in 10.0 mi ESE 12.7 mph - N/A   Clear
1:53 AM 64.9 °F 48.0 °F 54% 29.92 in 10.0 mi ESE 9.2 mph - N/A   Clear
2:53 AM 64.9 °F 48.9 °F 56% 29.91 in 10.0 mi Calm Calm - N/A   Partly Cloudy
3:53 AM 62.1 °F 48.9 °F 62% 29.93 in 10.0 mi Calm Calm - N/A   Partly Cloudy
4:53 AM 61.0 °F 48.9 °F 64% 29.95 in 10.0 mi Calm Calm - N/A   Overcast
5:53 AM 62.1 °F 48.9 °F 62% 29.98 in 10.0 mi Calm Calm - N/A   Overcast
6:53 AM 61.0 °F 50.0 °F 67% 30.02 in 10.0 mi Calm Calm - N/A   Mostly Cloudy
7:53 AM 64.0 °F 50.0 °F 60% 30.03 in 10.0 mi South 3.5 mph - N/A   Partly Cloudy
8:21 AM 66.2 °F 51.8 °F 60% 30.31 in 10.0 mi Calm Calm - N/A   Mostly Cloudy
8:53 AM 68.0 °F 51.1 °F 55% 30.03 in 10.0 mi SSE 3.5 mph - N/A   Mostly Cloudy
9:53 AM 71.1 °F 51.1 °F 49% 30.02 in 10.0 mi Variable 3.5 mph - N/A   Clear
10:53 AM 75.0 °F 50.0 °F 41% 30.00 in 10.0 mi Calm Calm - N/A   Clear
11:53 AM 75.9 °F 48.0 °F 37% 29.98 in 10.0 mi Calm Calm - N/A   Clear
12:53 PM 81.0 °F 45.0 °F 28% 29.94 in 10.0 mi SE 8.1 mph - N/A   Partly Cloudy
1:53 PM 80.1 °F 46.9 °F 31% 29.93 in 10.0 mi South 12.7 mph 24.2 mph N/A   Overcast
2:53 PM 82.9 °F 46.0 °F 27% 29.90 in 10.0 mi SSE 15.0 mph 25.3 mph N/A   Clear
3:53 PM 81.0 °F 45.0 °F 28% 29.91 in 10.0 mi South 18.4 mph 25.3 mph N/A   Scattered Clouds
4:13 PM 80.6 °F 50.0 °F 34% 30.23 in 10.0 mi SSW 21.9 mph 31.1 mph N/A   Clear
4:53 PM 81.0 °F 46.0 °F 29% 29.92 in 10.0 mi SSW 13.8 mph - N/A   Partly Cloudy
5:09 PM 78.8 °F 48.2 °F 34% 30.23 in 10.0 mi SE 18.4 mph 24.2 mph N/A   Scattered Clouds
5:53 PM 73.0 °F 52.0 °F 48% 29.96 in 10.0 mi ESE 17.3 mph - 0.00 in   Mostly Cloudy
6:53 PM 71.1 °F 54.0 °F 55% 29.97 in 10.0 mi ESE 13.8 mph - N/A   Scattered Clouds
7:53 PM 70.0 °F 51.1 °F 51% 29.98 in 10.0 mi ESE 10.4 mph - N/A   Overcast
8:53 PM 70.0 °F 52.0 °F 53% 30.00 in 10.0 mi SE 13.8 mph - N/A   Mostly Cloudy
9:53 PM 69.1 °F 53.1 °F 57% 30.03 in 10.0 mi SE 10.4 mph - N/A   Overcast
10:53 PM 69.1 °F 53.1 °F 57% 30.02 in 10.0 mi SE 5.8 mph - N/A   Overcast
11:53 PM 68.0 °F 53.1 °F 59% 30.01 in 10.0 mi SE 8.1 mph - 0.00 in   Overcast